FW4773 Weather Reports


Display with metric or nautical units.
time (UTC)temp
F
wind
direction
speed
MPH
gust
MPH
rain 1hr
in
rain 24hr
in
rain mn
in
humidity
%
barometer
mb
20260510001515 65 107 0.0 1.0 0.00 0.00 0.00 74 1011.3
20260510000018 66 74 0.0 3.0 0.00 0.00 0.00 73 1011.1
20260509234514 66 185 2.0 4.0 0.00 0.00 0.00 72 1010.9
20260509233011 67 164 2.0 4.0 0.00 0.00 0.00 71 1011.0
20260509231508 68 219 2.0 6.0 0.00 0.00 0.00 69 1010.9
20260509230009 69 204 1.0 4.0 0.00 0.00 0.00 68 1010.9
20260509224503 69 173 2.0 6.0 0.00 0.00 0.00 67 1010.7
20260509223007 69 187 2.0 8.0 0.00 0.00 0.00 68 1010.9
20260509221559 70 217 2.0 5.0 0.00 0.00 0.00 68 1010.9
20260509214556 71 94 0.0 4.0 0.00 0.00 0.00 67 1010.9
20260509213055 71 139 0.0 7.0 0.00 0.00 0.00 66 1010.9
20260509211549 71 111 0.0 3.0 0.00 0.00 0.00 66 1010.7
20260509210047 70 100 1.0 7.0 0.00 0.00 0.00 67 1010.6
20260509204545 70 139 2.0 8.0 0.00 0.00 0.00 68 1010.6
20260509203043 70 206 2.0 5.0 0.00 0.00 0.00 70 1010.8
20260509201549 69 352 0.0 5.0 0.00 0.00 0.00 71 1011.0
20260509200043 68 45 2.0 6.0 0.00 0.00 0.00 73 1011.2
20260509194534 69 2 2.0 5.0 0.00 0.00 0.00 70 1011.3
20260509193037 69 66 0.0 5.0 0.00 0.00 0.00 69 1011.3
20260509191529 68 52 0.0 0.0 0.00 0.00 0.00 71 1011.3
20260509190025 67 353 0.0 0.0 0.00 0.00 0.00 70 1012.0
20260509184530 68 218 0.0 5.0 0.00 0.00 0.00 66 1012.3
20260509183021 69 210 3.0 5.0 0.00 0.00 0.00 60 1012.2
20260509181518 70 200 3.0 6.0 0.00 0.00 0.00 59 1012.4
20260509180017 70 272 2.0 10.0 0.00 0.00 0.00 60 1012.6
20260509174516 69 211 3.0 7.0 0.00 0.00 0.00 59 1012.6
20260509173011 70 209 4.0 7.0 0.00 0.00 0.00 59 1012.6
20260509171514 70 214 4.0 12.0 0.00 0.00 0.00 57 1012.7
20260509170007 69 216 4.0 14.0 0.00 0.00 0.00 57 1012.8
20260509164504 69 200 6.0 11.0 0.00 0.00 0.00 56 1012.7
20260509163005 70 211 4.0 11.0 0.00 0.00 0.00 57 1012.7
20260509161600 70 136 7.0 13.0 0.00 0.00 0.00 57 1012.7
20260509160057 70 199 4.0 0.0 0.00 0.00 0.00 60 1012.9
20260509154553 69 224 8.0 13.0 0.00 0.00 0.00 60 1013.1
20260509153050 68 215 7.0 14.0 0.00 0.00 0.00 62 1013.0
20260509151643 68 158 2.0 11.0 0.00 0.00 0.00 63 1013.3
20260509150036 67 200 3.0 8.0 0.00 0.00 0.00 65 1013.6
20260509144551 66 180 1.0 4.0 0.00 0.00 0.00 68 1013.8
20260509143029 65 184 1.0 4.0 0.00 0.00 0.00 69 1013.9
20260509141530 64 237 1.0 4.0 0.00 0.00 0.00 72 1013.8
20260509140019 63 188 3.0 7.0 0.00 0.00 0.00 71 1013.9
20260509134517 63 208 3.0 5.0 0.00 0.00 0.00 71 1014.0
20260509133013 62 200 2.0 6.0 0.00 0.00 0.00 72 1014.0
20260509131515 62 219 2.0 7.0 0.00 0.00 0.00 72 1014.1
20260509130003 61 232 3.0 7.0 0.00 0.00 0.00 73 1014.0
20260509124613 61 173 3.0 7.0 0.00 0.00 0.00 74 1014.0
20260509123100 60 216 4.0 11.0 0.00 0.00 0.00 74 1014.0
20260509121552 59 204 5.0 11.0 0.00 0.00 0.00 75 1014.3
20260509120052 59 193 3.0 10.0 0.00 0.00 0.00 76 1014.3
20260509114545 59 189 2.0 7.0 0.00 0.00 0.00 75 1014.2
20260509113044 58 214 2.0 8.0 0.00 0.00 0.00 76 1014.2
20260509111540 58 218 2.0 7.0 0.00 0.00 0.00 75 1014.0
20260509110035 0 0.0 0.0 0.00 0.00 0.00 1014.2
20260509104535 0 0.0 0.0 0.00 0.00 0.00 1014.1
20260509103025 0 0.0 0.0 0.00 0.00 0.00 1013.9
20260509101520 0 212 1.0 2.0 0.00 0.00 0.00 71 1013.9
20260509100030 58 204 0.0 2.0 0.00 0.00 0.00 72 1013.7
20260509094521 58 226 0.0 2.0 0.00 0.00 0.00 71 1013.7
20260509093016 58 205 0.0 1.0 0.00 0.00 0.00 70 1013.7
20260509091513 58 205 0.0 1.0 0.00 0.00 0.00 68 1013.9
20260509090013 59 212 0.0 2.0 0.00 0.00 0.00 67 1013.8
20260509084514 59 205 1.0 3.0 0.00 0.00 0.00 69 1014.0
20260509083006 59 200 0.0 2.0 0.00 0.00 0.00 67 1014.0
20260509081505 59 200 1.0 5.0 0.00 0.00 0.00 66 1014.2
20260509080004 59 223 3.0 8.0 0.00 0.00 0.00 66 1014.2
20260509074602 59 204 3.0 6.0 0.00 0.00 0.00 66 1014.3
20260509073058 59 212 3.0 7.0 0.00 0.00 0.00 65 1014.2
20260509071608 59 200 3.0 7.0 0.00 0.00 0.00 66 1014.1
20260509070054 59 169 3.0 6.0 0.00 0.00 0.00 67 1014.2
20260509064547 59 179 2.0 6.0 0.00 0.00 0.00 68 1014.4
20260509063041 57 212 2.0 6.0 0.00 0.00 0.00 71 1014.6
20260509061545 56 156 0.0 2.0 0.00 0.00 0.00 74 1014.6
20260509060037 56 205 0.0 4.0 0.00 0.00 0.00 74 1014.9
20260509054532 55 186 0.0 1.0 0.00 0.00 0.00 73 1015.0
20260509053032 56 190 0.0 0.0 0.00 0.00 0.00 73 1014.9
20260509051533 56 193 0.0 1.0 0.00 0.00 0.00 72 1015.0
20260509050030 56 181 0.0 0.0 0.00 0.00 0.00 72 1015.0
20260509044536 56 200 0.0 0.0 0.00 0.00 0.00 70 1015.1
20260509043020 57 231 0.0 2.0 0.00 0.00 0.00 72 1015.2
20260509041517 57 207 0.0 3.0 0.00 0.00 0.00 71 1014.9
20260509040016 57 188 0.0 3.0 0.00 0.00 0.00 71 1015.0
20260509034514 57 205 0.0 4.0 0.00 0.00 0.00 73 1015.2
20260509033008 56 212 0.0 1.0 0.00 0.00 0.00 74 1015.3
20260509031507 56 209 0.0 4.0 0.00 0.00 0.00 75 1015.4
20260509030007 56 203 0.0 2.0 0.00 0.00 0.00 78 1015.4
20260509024502 56 236 0.0 1.0 0.00 0.00 0.00 80 1015.3
20260509023005 56 121 0.0 0.0 0.00 0.00 0.00 80 1015.2
20260509021600 57 121 0.0 1.0 0.00 0.00 0.00 78 1015.2
20260509020059 58 181 0.0 1.0 0.00 0.00 0.00 77 1015.1
20260509014556 58 129 0.0 0.0 0.00 0.00 0.00 76 1015.2
20260509013114 59 206 0.0 2.0 0.00 0.00 0.00 75 1015.1
20260509011551 60 207 1.0 3.0 0.00 0.00 0.00 74 1015.0
20260509010050 60 202 2.0 3.0 0.00 0.00 0.00 73 1015.1
20260509004545 61 185 2.0 4.0 0.00 0.00 0.00 72 1014.8
20260509003044 61 202 2.0 5.0 0.00 0.00 0.00 70 1014.6
20260509003018 61 219 2.0 5.0 0.00 0.00 0.00 70 1014.6